Location: Sternwarte_Laufen
(47.9344°N, 12.9346°E)
Time: 09:30:10
(UTC+02:00)

Envisat - Visible Passes

Search period start: 26 May 2017 00:00
Search period end: 05 June 2017 00:00
Orbit: 764 x 766 km, 98.2° (Epoch: 25 May)

Date Brightness Start Highest point End Pass type
(mag) Time Alt. Az. Time Alt. Az. Time Alt. Az.
26 May 4.2 21:41:13 10° SSW 21:45:59 41° W 21:50:48 10° NNW visible
27 May 5.7 22:47:07 10° WSW 22:48:58 12° W 22:50:51 10° WNW visible
28 May 5.0 22:07:40 10° SSW 22:11:48 25° W 22:15:58 10° NW visible
29 May 3.9 21:29:55 10° S 21:34:51 50° W 21:39:49 10° NNW visible
30 May 5.5 22:34:53 10° WSW 22:37:44 15° W 22:40:37 10° NW visible
31 May 4.7 21:56:11 10° SSW 22:00:38 30° W 22:05:07 10° NNW visible
02 Jun 5.4 22:23:01 10° SW 22:26:31 19° W 22:30:03 10° NW visible
03 Jun 4.4 21:44:47 10° SSW 21:49:29 37° W 21:54:13 10° NNW visible
04 Jun 5.8 22:51:21 10° W 22:52:31 11° W 22:53:42 10° WNW visible
